Lapse_Rate
7.1 7.0 6.9 6.8 6.7 6.6 6.5 6.1 5.6 5.6 5.9 6.2 6.3 6.2 6.1 5.9 5.9 5.8 6.0 6.0 6.2 6.2
7.4 7.4 7.4 7.2 7.1 7.0 6.9 6.8 6.8 6.7 6.6 6.6 6.4 6.1 6.2 6.1 5.9 5.6 5.8 5.8 5.8 5.7
7.7 7.8 7.6 7.5 7.4 7.4 7.3 7.1 7.0 6.9 6.7 6.6 6.5 6.1 5.8 5.7 5.7 6.0 6.1 5.9 5.5 5.4
7.8 7.8 7.6 7.4 7.5 7.4 7.3 7.1 6.8 6.5 6.4 6.3 6.2 6.0 5.9 6.1 6.1 6.0 5.9 5.7 5.5 5.7
7.8 7.6 7.7 7.8 7.9 7.7 7.5 7.0 6.7 6.8 6.2 5.9 5.8 6.0 5.9 6.1 5.7 5.7 5.8 5.4 5.5 5.7
7.7 7.7 7.8 7.7 7.6 7.5 7.2 7.1 6.7 6.5 6.3 5.7 5.6 6.1 6.2 5.5 6.2 5.9 5.7 5.7 5.6 5.9
8.0 8.1 8.0 7.8 7.6 7.5 7.1 7.2 6.7 6.5 6.4 6.3 6.2 6.3 6.2 6.0 6.0 6.2 6.4 6.0 5.9 6.0
8.3 8.3 8.1 7.9 7.8 7.6 7.3 7.3 7.2 6.7 6.6 6.6 6.4 6.6 6.6 6.3 6.5 6.6 6.4 6.2 6.2 6.4
8.3 8.3 8.1 8.0 7.9 7.9 7.7 7.4 7.3 7.2 7.0 6.9 6.7 6.7 6.7 6.3 6.3 6.7 6.6 6.6 6.6 6.4
8.2 8.2 8.2 8.0 8.0 7.9 7.5 7.3 7.1 6.9 6.9 7.0 6.9 7.0 6.8 6.9 6.7 6.8 6.6 6.4 6.2 6.4
8.5 8.3 8.2 8.1 8.0 7.7 7.3 7.1 7.0 6.9 7.0 7.0 7.1 7.1 7.1 6.9 6.9 7.0 6.9 6.5 6.4 6.3
8.7 8.4 8.1 8.1 7.7 7.5 7.1 7.1 7.1 7.0 6.9 7.0 7.1 7.2 7.2 7.0 7.0 6.8 6.5 6.2 6.3 6.6
8.7 8.3 8.1 7.9 7.6 7.5 7.2 7.1 7.0 6.9 6.9 6.9 6.8 6.7 6.8 6.9 6.8 6.8 6.7 7.0 6.7 6.6
8.5 8.1 7.8 7.8 7.7 7.5 7.3 7.0 6.9 6.8 6.7 6.7 6.6 6.5 6.5 6.4 6.2 6.3 6.3 6.3 6.4 6.3
Wind_Speed
19 12 12 14 12 10 9 9 10 10 13 14 14 13 13 9 9 10 10 13 12 8
17 18 15 16 11 11 11 10 12 12 12 11 13 14 12 9 10 11 11 11 11 8
18 18 17 14 16 16 13 13 13 14 14 13 13 12 12 10 10 11 7 7 9 8
18 18 17 17 19 20 19 18 18 19 17 16 16 15 14 14 11 11 13 12 11 12
18 18 19 19 19 16 16 16 16 14 16 16 15 14 12 11 9 11 8 10 10 12
18 19 21 21 19 18 19 18 15 16 16 16 14 12 14 13 11 12 13 13 12 9
21 22 20 18 18 18 19 17 17 16 16 16 12 14 11 13 14 13 11 12 9 9
19 18 17 17 17 17 17 16 16 14 15 15 13 9 12 12 10 10 9 8 7 7
17 17 18 17 17 17 17 16 15 16 15 13 10 11 15 14 11 11 10 8 7 7
16 17 16 16 17 17 16 15 15 14 12 12 11 13 14 11 8 9 9 10 10 8
16 16 15 15 16 14 11 11 9 8 7 7 5 12 14 12 9 8 9 10 11 12
15 14 13 11 7 4 5 4 4 4 6 6 6 14 16 14 10 11 10 9 10 11
10 9 8 8 6 4 7 7 7 9 8 10 10 15 15 14 9 11 9 10 10 14
9 9 10 8 7 9 10 10 9 11 10 11 9 10 15 15 8 9 8 7 7 6
Wind_Direction
201 205 209 212 218 221 224 223 213 215 222 227 225 226 225 226 228 222 226 229 224 222
200 205 207 215 214 220 226 227 224 225 230 226 226 224 221 221 223 220 217 217 221 213
204 206 208 205 211 217 223 225 229 234 230 228 223 219 219 218 219 214 211 223 226 223
203 203 204 209 213 216 217 214 216 221 225 224 223 216 212 218 214 207 221 232 216 236
203 204 208 215 219 216 220 222 228 228 223 224 225 225 216 213 212 227 214 218 209 225
202 205 211 213 210 209 215 222 219 215 216 223 220 218 216 219 204 208 206 219 217 215
208 211 213 214 214 213 215 217 216 215 218 220 220 218 211 212 212 213 216 219 202 190
210 214 216 217 217 217 219 221 218 217 224 227 229 210 207 207 204 201 192 188 173 178
206 207 212 214 216 218 221 223 221 221 222 223 228 214 196 191 198 193 172 159 129 131
205 207 209 213 218 221 223 222 222 222 217 213 209 186 186 169 167 163 158 143 138 125
202 207 205 207 215 218 219 217 211 197 180 166 159 157 144 132 125 122 128 138 139 131
196 201 197 192 155 127 131 112 98 106 119 122 114 126 123 115 110 100 93 99 110 121
162 141 129 124 116 81 92 94 89 78 77 98 113 113 118 116 119 112 109 96 94 100
124 118 111 98 104 109 102 97 90 85 68 68 80 101 112 116 117 123 113 108 110 108